Location: ???????
(55.3754°N, 39.3545°E)
Time: 21:05:23
(UTC+00:00)

Cosmos 2228 - Pass Details

Date: 14 April 2026
Orbit: 561 x 588 km, 82.5° (Epoch: 11 May)

Event Time Altitude Azimuth Distance (km) Brightness Sun altitude
Exits shadow 22:52:08 34° 283° (WNW) 968 3.9 -22.3°
Maximum altitude 22:52:23 35° 291° (WNW) 962 4.0 -22.3°
Drops below altitude 10° 22:56:15 10° 358° (N) 1,910 6.4 -22.1°
Sets 22:58:37 0° 8° (N) 2,809 7.7 -21.9°
